Location: Asheville, NC
(35.6000°N, 82.5500°W)
Time: 06:13:33
(UTC-05:00)

Vanguard 2 - Pass Details

Date: 09 February 2018
Orbit: 553 x 2939 km, 32.9° (Epoch: 24 February)

Event Time Altitude Azimuth Distance (km) Brightness Sun altitude
Rises 21:00:27 0° 234° (SW) 3,667 11.6 -35.8°
Reaches altitude 10° 21:03:44 10° 225° (SW) 2,405 10.4 -36.5°
Enters shadow 21:04:38 14° 220° (SW) 2,078 10.0 -36.7°
